Tracking 33877 objects as of 19-Apr-2026
HD Live streaming from Space Station
objects crossing your sky now

ARIANE 5 DEB

Track ARIANE 5 DEB now!


NORAD ID: 43382
Int'l Code: 2008-030E
Perigee: 287.4 km
Apogee: 32,158.4 km
Inclination: 2.1 °
Period: 563.3 minutes
Semi major axis: 22593 km
RCS: Unknown
Launch date: June 12, 2008
Source: France (FR)
Launch site: FRENCH GUIANA (FRGUI)

Note: This is SATELLITE DEBRIS
Your satellite tracking list
Your tracking list is empty




NASA's NSSDC Master Catalog

Two Line Element Set (TLE):
1 43382U 08030E   26109.31570506  .00003197  00000-0  13900-2 0  9991
2 43382   2.1283  21.0344 7053022 222.4811  52.3489  2.55632984111885
Source of the keplerian elements: AFSPC